Time,TemperatureF,DewpointF,PressureIn,WindDirection,WindDirectionDegrees,WindSpeedMPH,WindSpeedGustMPH,Humidity,HourlyPrecipIn,Conditions,Clouds,dailyrainin,SoftwareType,DateUTC
2013-06-27 00:02:00,69.3,66.9,29.74,SSE,157,0.0,3.0,92,0.00,,,0.00,meteohub,2013-06-27 05:02:00,
2013-06-27 00:07:00,69.3,67.1,29.74,SSE,157,2.0,3.0,93,0.00,,,0.00,meteohub,2013-06-27 05:07:00,
2013-06-27 00:12:00,69.4,67.3,29.74,SSE,157,0.0,3.0,93,0.00,,,0.00,meteohub,2013-06-27 05:12:00,
2013-06-27 00:17:00,69.4,67.3,29.74,SSE,157,2.0,3.0,93,0.00,,,0.00,meteohub,2013-06-27 05:17:00,
2013-06-27 00:22:00,69.3,67.1,29.74,SSE,157,3.0,3.0,93,0.00,,,0.00,meteohub,2013-06-27 05:22:00,
2013-06-27 00:27:00,69.3,67.1,29.74,SSE,157,0.0,4.0,93,0.00,,,0.00,meteohub,2013-06-27 05:27:00,
2013-06-27 00:32:00,68.9,66.7,29.74,SSE,157,2.0,4.0,93,0.00,,,0.00,meteohub,2013-06-27 05:32:00,
2013-06-27 00:37:00,68.7,66.9,29.75,SSE,157,3.0,4.0,94,0.00,,,0.00,meteohub,2013-06-27 05:37:00,
2013-06-27 00:42:00,68.5,66.4,29.75,SSE,157,0.0,4.0,93,0.00,,,0.00,meteohub,2013-06-27 05:42:00,
2013-06-27 00:47:00,68.5,66.7,29.74,SSE,157,0.0,4.0,94,0.00,,,0.00,meteohub,2013-06-27 05:47:00,
2013-06-27 00:52:00,68.7,66.9,29.74,SSE,157,0.0,4.0,94,0.00,,,0.00,meteohub,2013-06-27 05:52:00,
2013-06-27 00:57:00,68.7,66.9,29.74,SSE,157,3.0,3.0,94,0.00,,,0.00,meteohub,2013-06-27 05:57:00,
2013-06-27 01:02:00,68.9,67.1,29.74,SSE,157,1.0,4.0,94,0.00,,,0.00,meteohub,2013-06-27 06:02:00,
2013-06-27 01:07:00,68.7,66.9,29.75,SSE,157,4.0,4.0,94,0.00,,,0.00,meteohub,2013-06-27 06:07:00,
2013-06-27 01:12:00,68.7,66.9,29.75,SSE,157,4.0,4.0,94,0.00,,,0.00,meteohub,2013-06-27 06:12:00,
2013-06-27 01:17:00,68.9,67.5,29.74,SSE,157,2.0,5.0,95,0.00,,,0.00,meteohub,2013-06-27 06:17:00,
2013-06-27 01:22:00,69.1,67.6,29.73,SSE,157,1.0,5.0,95,0.00,,,0.00,meteohub,2013-06-27 06:22:00,
2013-06-27 01:27:00,69.1,67.6,29.73,SSE,157,4.0,5.0,95,0.00,,,0.00,meteohub,2013-06-27 06:27:00,
2013-06-27 01:32:00,69.3,67.8,29.73,SSE,157,3.0,6.0,95,0.00,,,0.00,meteohub,2013-06-27 06:32:00,
2013-06-27 01:37:00,69.3,67.8,29.73,SSE,157,2.0,6.0,95,0.00,,,0.00,meteohub,2013-06-27 06:37:00,
2013-06-27 01:42:00,69.3,67.5,29.73,SSE,157,2.0,6.0,94,0.00,,,0.00,meteohub,2013-06-27 06:42:00,
2013-06-27 01:47:00,69.1,67.3,29.73,SSE,157,3.0,5.0,94,0.00,,,0.00,meteohub,2013-06-27 06:47:00,
2013-06-27 01:52:00,69.3,67.8,29.73,SSE,157,2.0,5.0,95,0.00,,,0.00,meteohub,2013-06-27 06:52:00,
2013-06-27 01:57:00,69.3,67.8,29.73,SSE,157,1.0,5.0,95,0.00,,,0.00,meteohub,2013-06-27 06:57:00,
2013-06-27 02:02:00,69.3,67.8,29.73,SSE,157,5.0,5.0,95,0.00,,,0.00,meteohub,2013-06-27 07:02:00,
2013-06-27 02:07:00,69.3,67.8,29.73,SSE,157,2.0,5.0,95,0.00,,,0.00,meteohub,2013-06-27 07:07:00,
2013-06-27 02:12:00,69.4,68.0,29.74,SSE,157,4.0,6.0,95,0.00,,,0.00,meteohub,2013-06-27 07:12:00,
2013-06-27 02:17:00,69.4,68.0,29.74,SSE,157,4.0,6.0,95,0.00,,,0.00,meteohub,2013-06-27 07:17:00,
2013-06-27 02:22:00,69.4,68.0,29.74,SSE,157,3.0,6.0,95,0.00,,,0.00,meteohub,2013-06-27 07:22:00,
2013-06-27 02:27:00,69.4,68.0,29.74,SSE,157,3.0,5.0,95,0.00,,,0.00,meteohub,2013-06-27 07:27:00,
2013-06-27 02:32:00,69.6,68.2,29.75,SSE,157,5.0,5.0,95,0.00,,,0.00,meteohub,2013-06-27 07:32:00,
2013-06-27 02:37:00,69.6,68.4,29.75,SSE,157,3.0,7.0,96,0.00,,,0.00,meteohub,2013-06-27 07:37:00,
2013-06-27 02:42:00,69.6,68.4,29.74,SSE,157,3.0,7.0,96,0.01,,,0.01,meteohub,2013-06-27 07:42:00,
2013-06-27 02:47:00,69.4,68.2,29.74,SSE,157,4.0,7.0,96,0.01,,,0.01,meteohub,2013-06-27 07:47:00,
2013-06-27 02:52:00,69.4,68.2,29.74,SSE,157,3.0,7.0,96,0.01,,,0.01,meteohub,2013-06-27 07:52:00,
2013-06-27 02:57:00,69.3,68.0,29.73,SSE,157,3.0,5.0,96,0.01,,,0.01,meteohub,2013-06-27 07:57:00,
2013-06-27 03:02:00,69.3,68.0,29.74,SSE,157,3.0,5.0,96,0.01,,,0.01,meteohub,2013-06-27 08:02:00,
2013-06-27 03:07:00,69.3,68.0,29.73,SSE,157,1.0,5.0,96,0.01,,,0.01,meteohub,2013-06-27 08:07:00,
2013-06-27 03:12:00,69.1,67.8,29.73,SSE,157,2.0,5.0,96,0.01,,,0.01,meteohub,2013-06-27 08:12:00,
2013-06-27 03:17:00,68.7,67.5,29.73,SSE,157,2.0,5.0,96,0.01,,,0.01,meteohub,2013-06-27 08:17:00,
2013-06-27 03:22:00,68.5,67.3,29.73,SSE,157,0.0,4.0,96,0.01,,,0.01,meteohub,2013-06-27 08:22:00,
2013-06-27 03:27:00,68.5,67.3,29.73,SSE,157,1.0,4.0,96,0.01,,,0.01,meteohub,2013-06-27 08:27:00,
2013-06-27 03:32:00,68.4,67.1,29.73,SSE,157,3.0,4.0,96,0.01,,,0.01,meteohub,2013-06-27 08:32:00,
2013-06-27 03:37:00,68.0,66.7,29.73,SSE,157,2.0,3.0,96,0.01,,,0.01,meteohub,2013-06-27 08:37:00,
2013-06-27 03:42:00,68.0,66.7,29.73,SSE,157,0.0,3.0,96,0.00,,,0.01,meteohub,2013-06-27 08:42:00,
2013-06-27 03:47:00,67.8,66.6,29.73,SSE,157,0.0,3.0,96,0.00,,,0.01,meteohub,2013-06-27 08:47:00,
2013-06-27 03:52:00,68.2,66.9,29.73,SSE,157,0.0,3.0,96,0.00,,,0.01,meteohub,2013-06-27 08:52:00,
2013-06-27 03:57:00,68.4,67.1,29.73,SSE,157,0.0,2.0,96,0.00,,,0.01,meteohub,2013-06-27 08:57:00,
2013-06-27 04:02:00,68.4,67.5,29.73,SSE,157,0.0,2.0,97,0.00,,,0.01,meteohub,2013-06-27 09:02:00,
2013-06-27 04:07:00,68.5,67.6,29.73,SSE,157,0.0,1.0,97,0.00,,,0.01,meteohub,2013-06-27 09:07:00,
2013-06-27 04:12:00,68.5,67.3,29.74,SSE,157,0.0,1.0,96,0.00,,,0.01,meteohub,2013-06-27 09:12:00,
2013-06-27 04:17:00,68.5,67.3,29.73,SSE,157,0.0,0.0,96,0.00,,,0.01,meteohub,2013-06-27 09:17:00,
2013-06-27 04:22:00,68.4,67.1,29.73,SSE,157,0.0,0.0,96,0.00,,,0.01,meteohub,2013-06-27 09:22:00,
2013-06-27 04:27:00,68.5,67.6,29.73,SSE,157,0.0,1.0,97,0.00,,,0.01,meteohub,2013-06-27 09:27:00,
2013-06-27 04:32:00,68.5,67.6,29.73,SSE,157,0.0,1.0,97,0.00,,,0.01,meteohub,2013-06-27 09:32:00,
2013-06-27 04:37:00,68.5,67.6,29.74,SSE,157,0.0,1.0,97,0.00,,,0.01,meteohub,2013-06-27 09:37:00,
2013-06-27 04:42:00,68.5,67.6,29.74,SSE,157,0.0,1.0,97,0.00,,,0.01,meteohub,2013-06-27 09:42:00,
2013-06-27 04:47:00,68.7,67.8,29.74,SSE,157,0.0,1.0,97,0.00,,,0.01,meteohub,2013-06-27 09:47:00,
2013-06-27 04:52:00,68.9,68.0,29.75,SSE,157,0.0,1.0,97,0.00,,,0.01,meteohub,2013-06-27 09:52:00,
2013-06-27 04:57:00,69.1,68.2,29.74,SSE,157,0.0,1.0,97,0.00,,,0.01,meteohub,2013-06-27 09:57:00,
2013-06-27 05:02:00,69.1,68.2,29.74,SSE,157,0.0,1.0,97,0.00,,,0.01,meteohub,2013-06-27 10:02:00,
2013-06-27 05:07:00,69.1,68.2,29.74,SSE,157,0.0,1.0,97,0.00,,,0.01,meteohub,2013-06-27 10:07:00,
2013-06-27 05:12:00,69.3,68.4,29.74,SSE,157,0.0,1.0,97,0.00,,,0.01,meteohub,2013-06-27 10:12:00,
2013-06-27 05:17:00,69.1,68.2,29.74,SSE,157,2.0,2.0,97,0.00,,,0.01,meteohub,2013-06-27 10:17:00,
2013-06-27 05:22:00,68.7,67.8,29.74,SSE,157,0.0,2.0,97,0.00,,,0.01,meteohub,2013-06-27 10:22:00,
2013-06-27 05:27:00,68.7,67.8,29.74,SSE,157,1.0,2.0,97,0.00,,,0.01,meteohub,2013-06-27 10:27:00,
2013-06-27 05:32:00,68.9,68.0,29.74,SSE,157,2.0,4.0,97,0.00,,,0.01,meteohub,2013-06-27 10:32:00,
2013-06-27 05:37:00,68.7,67.8,29.74,SSE,157,2.0,4.0,97,0.00,,,0.01,meteohub,2013-06-27 10:37:00,
2013-06-27 05:42:00,68.7,67.8,29.74,SSE,157,0.0,4.0,97,0.00,,,0.01,meteohub,2013-06-27 10:42:00,
2013-06-27 05:47:00,68.5,67.6,29.74,SSE,157,2.0,3.0,97,0.00,,,0.01,meteohub,2013-06-27 10:47:00,
2013-06-27 05:52:00,68.5,67.6,29.74,SSE,157,3.0,4.0,97,0.00,,,0.01,meteohub,2013-06-27 10:52:00,
2013-06-27 05:57:00,68.5,67.6,29.74,SSE,157,2.0,4.0,97,0.00,,,0.01,meteohub,2013-06-27 10:57:00,
2013-06-27 06:02:00,68.7,67.8,29.74,SSE,157,3.0,4.0,97,0.00,,,0.01,meteohub,2013-06-27 11:02:00,
2013-06-27 06:07:00,69.1,68.2,29.75,SSE,157,4.0,5.0,97,0.00,,,0.01,meteohub,2013-06-27 11:07:00,
2013-06-27 06:12:00,69.1,68.2,29.75,SSE,157,2.0,6.0,97,0.00,,,0.01,meteohub,2013-06-27 11:12:00,
2013-06-27 06:17:00,69.3,68.4,29.75,SSE,157,2.0,6.0,97,0.00,,,0.01,meteohub,2013-06-27 11:17:00,
2013-06-27 06:22:00,69.4,68.5,29.75,SSE,157,1.0,6.0,97,0.00,,,0.01,meteohub,2013-06-27 11:22:00,
2013-06-27 06:27:00,69.4,68.5,29.74,SSE,157,4.0,6.0,97,0.00,,,0.01,meteohub,2013-06-27 11:27:00,
2013-06-27 06:32:00,69.6,68.7,29.75,SSE,157,5.0,7.0,97,0.00,,,0.01,meteohub,2013-06-27 11:32:00,
2013-06-27 06:37:00,70.0,69.1,29.75,SSE,157,3.0,7.0,97,0.00,,,0.01,meteohub,2013-06-27 11:37:00,
2013-06-27 06:42:00,70.2,69.3,29.75,SW,218,3.0,9.0,97,0.00,,,0.01,meteohub,2013-06-27 11:42:00,
2013-06-27 06:47:00,70.2,69.3,29.74,SW,228,6.0,9.0,97,0.00,,,0.01,meteohub,2013-06-27 11:47:00,
2013-06-27 06:52:00,70.3,69.4,29.75,SW,229,4.0,9.0,97,0.00,,,0.01,meteohub,2013-06-27 11:52:00,
2013-06-27 06:57:00,70.5,69.6,29.75,SW,230,3.0,8.0,97,0.00,,,0.01,meteohub,2013-06-27 11:57:00,
2013-06-27 07:02:00,70.9,70.0,29.75,West,267,4.0,9.0,97,0.00,,,0.01,meteohub,2013-06-27 12:02:00,
2013-06-27 07:07:00,70.9,70.0,29.74,WSW,257,7.0,9.0,97,0.00,,,0.01,meteohub,2013-06-27 12:07:00,
2013-06-27 07:12:00,71.2,70.3,29.74,WSW,250,5.0,10.0,97,0.00,,,0.01,meteohub,2013-06-27 12:12:00,
2013-06-27 07:17:00,71.4,70.5,29.74,WSW,252,5.0,10.0,97,0.00,,,0.01,meteohub,2013-06-27 12:17:00,
2013-06-27 07:22:00,71.8,70.9,29.74,WSW,256,4.0,10.0,97,0.00,,,0.01,meteohub,2013-06-27 12:22:00,
2013-06-27 07:27:00,72.1,71.2,29.74,WSW,256,5.0,8.0,97,0.00,,,0.01,meteohub,2013-06-27 12:27:00,
2013-06-27 07:32:00,72.3,71.1,29.74,West,265,1.0,8.0,96,0.00,,,0.01,meteohub,2013-06-27 12:32:00,
2013-06-27 07:37:00,72.7,71.4,29.74,West,265,4.0,8.0,96,0.00,,,0.01,meteohub,2013-06-27 12:37:00,
2013-06-27 07:42:00,73.0,71.6,29.73,West,262,2.0,8.0,95,0.00,,,0.01,meteohub,2013-06-27 12:42:00,
2013-06-27 07:43:00,73.0,71.6,29.73,West,262,0.0,8.0,95,0.00,,,0.01,meteohub,2013-06-27 12:43:00,
2013-06-27 07:48:00,73.6,72.1,29.73,West,262,3.0,8.0,95,0.00,,,0.01,meteohub,2013-06-27 12:48:00,
2013-06-27 07:53:00,73.8,72.0,29.73,West,262,1.0,8.0,94,0.00,,,0.01,meteohub,2013-06-27 12:53:00,
2013-06-27 07:58:00,73.9,71.4,29.73,West,261,1.0,6.0,92,0.00,,,0.01,meteohub,2013-06-27 12:58:00,
2013-06-27 08:03:00,73.9,71.4,29.73,West,261,4.0,8.0,92,0.00,,,0.01,meteohub,2013-06-27 13:03:00,
2013-06-27 08:08:00,74.1,71.2,29.73,West,261,0.0,8.0,91,0.00,,,0.01,meteohub,2013-06-27 13:08:00,
2013-06-27 08:14:00,74.5,71.6,29.74,West,261,3.0,8.0,91,0.00,,,0.01,meteohub,2013-06-27 13:14:00,
2013-06-27 08:19:00,74.5,71.4,29.74,West,264,6.0,8.0,90,0.00,,,0.01,meteohub,2013-06-27 13:19:00,
2013-06-27 08:24:00,74.8,72.0,29.74,West,265,2.0,8.0,91,0.00,,,0.01,meteohub,2013-06-27 13:24:00,
2013-06-27 08:29:00,74.8,71.8,29.74,West,261,4.0,8.0,90,0.00,,,0.01,meteohub,2013-06-27 13:29:00,
2013-06-27 08:34:00,75.0,71.6,29.74,West,262,4.0,8.0,89,0.00,,,0.01,meteohub,2013-06-27 13:34:00,
2013-06-27 08:39:00,75.4,72.0,29.74,West,261,9.0,9.0,89,0.00,,,0.01,meteohub,2013-06-27 13:39:00,
2013-06-27 08:45:00,75.6,72.1,29.75,West,261,2.0,9.0,89,0.00,,,0.01,meteohub,2013-06-27 13:45:00,
2013-06-27 08:50:00,75.7,72.3,29.74,West,261,5.0,9.0,89,0.00,,,0.01,meteohub,2013-06-27 13:50:00,
2013-06-27 08:55:00,76.1,72.3,29.74,West,262,5.0,9.0,88,0.00,,,0.01,meteohub,2013-06-27 13:55:00,
2013-06-27 09:00:00,76.3,72.5,29.74,West,264,4.0,8.0,88,0.00,,,0.01,meteohub,2013-06-27 14:00:00,
2013-06-27 09:05:00,76.5,72.7,29.74,West,263,2.0,9.0,88,0.00,,,0.01,meteohub,2013-06-27 14:05:00,
2013-06-27 09:11:00,76.5,72.3,29.74,West,263,6.0,9.0,87,0.00,,,0.01,meteohub,2013-06-27 14:11:00,
2013-06-27 09:16:00,76.6,72.9,29.74,West,261,3.0,9.0,88,0.00,,,0.01,meteohub,2013-06-27 14:16:00,
2013-06-27 09:21:00,77.0,72.9,29.74,West,261,2.0,9.0,87,0.00,,,0.01,meteohub,2013-06-27 14:21:00,
2013-06-27 09:26:00,77.2,72.7,29.74,West,266,2.0,9.0,86,0.00,,,0.01,meteohub,2013-06-27 14:26:00,
2013-06-27 09:31:00,77.4,72.5,29.73,West,266,1.0,10.0,85,0.00,,,0.01,meteohub,2013-06-27 14:31:00,
2013-06-27 09:36:00,77.9,73.4,29.74,West,271,2.0,10.0,86,0.00,,,0.01,meteohub,2013-06-27 14:36:00,
2013-06-27 09:42:00,78.3,73.0,29.74,West,267,1.0,8.0,84,0.00,,,0.01,meteohub,2013-06-27 14:42:00,
2013-06-27 09:47:00,78.3,73.0,29.73,West,266,5.0,8.0,84,0.00,,,0.01,meteohub,2013-06-27 14:47:00,
2013-06-27 09:52:00,78.1,72.5,29.73,West,272,4.0,9.0,83,0.00,,,0.01,meteohub,2013-06-27 14:52:00,
2013-06-27 09:57:00,77.4,71.8,29.74,West,265,4.0,9.0,83,0.00,,,0.01,meteohub,2013-06-27 14:57:00,
2013-06-27 10:02:00,77.5,72.3,29.74,WNW,298,6.0,10.0,84,0.00,,,0.01,meteohub,2013-06-27 15:02:00,
2013-06-27 10:07:00,78.3,73.4,29.74,WNW,301,5.0,10.0,85,0.00,,,0.01,meteohub,2013-06-27 15:07:00,
2013-06-27 10:12:00,78.4,72.9,29.74,WNW,295,2.0,9.0,83,0.00,,,0.01,meteohub,2013-06-27 15:12:00,
2013-06-27 10:17:00,78.6,72.7,29.74,WNW,282,2.0,9.0,82,0.00,,,0.01,meteohub,2013-06-27 15:17:00,
2013-06-27 10:22:00,79.0,72.7,29.74,West,268,1.0,12.0,81,0.00,,,0.01,meteohub,2013-06-27 15:22:00,
2013-06-27 10:27:00,79.5,73.9,29.73,West,281,1.0,12.0,83,0.00,,,0.01,meteohub,2013-06-27 15:27:00,
2013-06-27 10:32:00,79.9,73.6,29.73,WNW,292,3.0,12.0,81,0.00,,,0.01,meteohub,2013-06-27 15:32:00,
2013-06-27 10:37:00,79.3,72.0,29.73,West,277,4.0,7.0,78,0.00,,,0.01,meteohub,2013-06-27 15:37:00,
2013-06-27 10:42:00,79.5,72.9,29.73,West,266,1.0,11.0,80,0.00,,,0.01,meteohub,2013-06-27 15:42:00,
2013-06-27 10:47:00,80.1,73.8,29.73,West,277,3.0,11.0,81,0.00,,,0.01,meteohub,2013-06-27 15:47:00,
2013-06-27 10:52:00,80.4,72.9,29.73,West,278,2.0,11.0,78,0.00,,,0.01,meteohub,2013-06-27 15:52:00,
2013-06-27 10:57:00,80.6,72.7,29.73,West,279,0.0,7.0,77,0.00,,,0.01,meteohub,2013-06-27 15:57:00,
2013-06-27 11:02:00,80.8,72.5,29.73,West,278,0.0,7.0,76,0.00,,,0.01,meteohub,2013-06-27 16:02:00,
2013-06-27 11:07:00,80.8,72.1,29.73,WNW,286,4.0,7.0,75,0.00,,,0.01,meteohub,2013-06-27 16:07:00,
2013-06-27 11:12:00,80.8,72.1,29.73,WNW,298,6.0,8.0,75,0.00,,,0.01,meteohub,2013-06-27 16:12:00,
2013-06-27 11:17:00,81.0,72.0,29.73,West,263,8.0,9.0,74,0.00,,,0.01,meteohub,2013-06-27 16:17:00,
2013-06-27 11:22:00,81.0,72.3,29.73,West,275,1.0,13.0,75,0.00,,,0.01,meteohub,2013-06-27 16:22:00,
2013-06-27 11:27:00,81.1,72.1,29.73,WNW,292,6.0,13.0,74,0.00,,,0.01,meteohub,2013-06-27 16:27:00,
2013-06-27 11:32:00,81.1,73.6,29.73,WNW,301,2.0,13.0,78,0.00,,,0.01,meteohub,2013-06-27 16:32:00,
2013-06-27 11:37:00,81.3,72.3,29.73,West,275,4.0,9.0,74,0.00,,,0.01,meteohub,2013-06-27 16:37:00,
2013-06-27 11:42:00,81.0,72.7,29.73,West,267,6.0,12.0,76,0.00,,,0.01,meteohub,2013-06-27 16:42:00,
2013-06-27 11:47:00,81.1,73.6,29.73,West,273,3.0,12.0,78,0.00,,,0.01,meteohub,2013-06-27 16:47:00,
2013-06-27 11:52:00,81.0,71.4,29.73,West,269,3.0,12.0,73,0.00,,,0.01,meteohub,2013-06-27 16:52:00,
2013-06-27 11:57:00,80.8,71.2,29.73,WSW,254,0.0,9.0,73,0.00,,,0.01,meteohub,2013-06-27 16:57:00,
2013-06-27 12:02:00,80.6,70.7,29.73,WSW,255,1.0,9.0,72,0.00,,,0.01,meteohub,2013-06-27 17:02:00,
2013-06-27 12:07:00,80.2,71.2,29.73,West,259,1.0,8.0,74,0.00,,,0.01,meteohub,2013-06-27 17:07:00,
2013-06-27 12:12:00,79.9,70.5,29.73,West,268,2.0,6.0,73,0.00,,,0.01,meteohub,2013-06-27 17:12:00,
2013-06-27 12:17:00,79.5,70.5,29.73,West,269,0.0,6.0,74,0.00,,,0.01,meteohub,2013-06-27 17:17:00,
2013-06-27 12:22:00,79.3,70.0,29.73,West,269,0.0,6.0,73,0.00,,,0.01,meteohub,2013-06-27 17:22:00,
2013-06-27 12:27:00,79.2,70.5,29.73,West,269,0.0,5.0,75,0.00,,,0.01,meteohub,2013-06-27 17:27:00,
2013-06-27 12:32:00,79.0,70.3,29.73,West,269,0.0,5.0,75,0.00,,,0.01,meteohub,2013-06-27 17:32:00,
2013-06-27 12:37:00,79.0,71.1,29.73,West,269,0.0,5.0,77,0.00,,,0.01,meteohub,2013-06-27 17:37:00,
2013-06-27 12:42:00,79.2,71.2,29.73,West,269,0.0,2.0,77,0.00,,,0.01,meteohub,2013-06-27 17:42:00,
2013-06-27 12:47:00,79.2,71.2,29.73,West,269,0.0,2.0,77,0.00,,,0.01,meteohub,2013-06-27 17:47:00,
2013-06-27 12:52:00,79.3,72.3,29.73,West,269,0.0,4.0,79,0.00,,,0.01,meteohub,2013-06-27 17:52:00,
2013-06-27 12:57:00,79.3,72.3,29.74,West,269,2.0,4.0,79,0.00,,,0.01,meteohub,2013-06-27 17:57:00,
2013-06-27 13:02:00,79.2,72.1,29.74,West,269,0.0,4.0,79,0.00,,,0.01,meteohub,2013-06-27 18:02:00,
2013-06-27 13:07:00,79.0,72.0,29.73,West,273,5.0,5.0,79,0.00,,,0.01,meteohub,2013-06-27 18:07:00,
2013-06-27 13:12:00,78.4,71.8,29.73,NW,311,2.0,4.0,80,0.00,,,0.01,meteohub,2013-06-27 18:12:00,
2013-06-27 13:17:00,77.9,70.9,29.74,NW,323,0.0,8.0,79,0.00,,,0.01,meteohub,2013-06-27 18:17:00,
2013-06-27 13:22:00,77.5,70.5,29.73,NW,323,2.0,8.0,79,0.00,,,0.01,meteohub,2013-06-27 18:22:00,
2013-06-27 13:27:00,77.5,70.5,29.73,NW,323,4.0,8.0,79,0.00,,,0.01,meteohub,2013-06-27 18:27:00,
2013-06-27 13:32:00,77.7,70.3,29.73,NW,323,2.0,7.0,78,0.00,,,0.01,meteohub,2013-06-27 18:32:00,
2013-06-27 13:37:00,78.3,70.0,29.73,NW,323,4.0,5.0,76,0.00,,,0.01,meteohub,2013-06-27 18:37:00,
2013-06-27 13:42:00,79.2,69.3,29.73,NW,323,0.0,5.0,72,0.00,,,0.01,meteohub,2013-06-27 18:42:00,
2013-06-27 13:47:00,79.9,70.9,29.72,NW,323,0.0,5.0,74,0.00,,,0.01,meteohub,2013-06-27 18:47:00,
2013-06-27 13:52:00,80.4,70.2,29.72,WNW,296,6.0,6.0,71,0.00,,,0.01,meteohub,2013-06-27 18:52:00,
2013-06-27 13:57:00,80.8,69.6,29.72,WNW,287,0.0,7.0,69,0.00,,,0.01,meteohub,2013-06-27 18:57:00,
2013-06-27 14:02:00,80.4,68.5,29.72,West,271,2.0,8.0,67,0.00,,,0.01,meteohub,2013-06-27 19:02:00,
2013-06-27 14:07:00,80.4,68.5,29.72,WSW,254,3.0,8.0,67,0.00,,,0.01,meteohub,2013-06-27 19:07:00,
2013-06-27 14:12:00,81.0,67.6,29.71,WSW,254,6.0,9.0,64,0.00,,,0.01,meteohub,2013-06-27 19:12:00,
2013-06-27 14:17:00,81.1,66.4,29.71,WSW,250,8.0,9.0,61,0.00,,,0.01,meteohub,2013-06-27 19:17:00,
2013-06-27 14:22:00,81.5,65.8,29.70,WSW,257,6.0,10.0,59,0.00,,,0.01,meteohub,2013-06-27 19:22:00,
2013-06-27 14:27:00,81.7,64.9,29.70,WSW,253,6.0,10.0,57,0.00,,,0.01,meteohub,2013-06-27 19:27:00,
2013-06-27 14:32:00,82.0,66.4,29.69,WSW,258,4.0,13.0,59,0.00,,,0.01,meteohub,2013-06-27 19:32:00,
2013-06-27 14:38:00,82.6,67.3,29.69,WSW,256,2.0,13.0,60,0.00,,,0.01,meteohub,2013-06-27 19:38:00,
2013-06-27 14:43:00,82.8,66.0,29.69,WSW,258,5.0,9.0,57,0.00,,,0.01,meteohub,2013-06-27 19:43:00,
2013-06-27 14:48:00,83.3,67.5,29.68,WSW,254,2.0,9.0,59,0.00,,,0.01,meteohub,2013-06-27 19:48:00,
2013-06-27 14:53:00,83.7,65.8,29.68,WSW,242,5.0,9.0,55,0.00,,,0.01,meteohub,2013-06-27 19:53:00,
2013-06-27 14:58:00,83.7,67.3,29.68,WSW,240,5.0,9.0,58,0.00,,,0.01,meteohub,2013-06-27 19:58:00,
2013-06-27 15:02:00,83.7,67.8,29.68,WSW,240,3.0,10.0,59,0.00,,,0.01,meteohub,2013-06-27 20:02:00,
2013-06-27 15:07:00,83.8,68.5,29.67,WSW,242,4.0,10.0,60,0.00,,,0.01,meteohub,2013-06-27 20:07:00,
2013-06-27 15:12:00,84.0,65.7,29.67,WSW,240,1.0,8.0,54,0.00,,,0.01,meteohub,2013-06-27 20:12:00,
2013-06-27 15:17:00,84.4,66.4,29.67,WSW,241,4.0,10.0,55,0.00,,,0.01,meteohub,2013-06-27 20:17:00,
2013-06-27 15:22:00,84.6,67.1,29.68,WSW,238,4.0,10.0,56,0.00,,,0.01,meteohub,2013-06-27 20:22:00,
2013-06-27 15:27:00,84.4,66.4,29.68,SW,227,6.0,10.0,55,0.00,,,0.01,meteohub,2013-06-27 20:27:00,
2013-06-27 15:32:00,84.4,66.9,29.68,WSW,242,3.0,10.0,56,0.00,,,0.01,meteohub,2013-06-27 20:32:00,
2013-06-27 15:37:00,84.0,68.2,29.68,SW,230,6.0,12.0,59,0.00,,,0.01,meteohub,2013-06-27 20:37:00,
2013-06-27 15:42:00,84.0,68.7,29.68,SW,217,10.0,12.0,60,0.00,,,0.01,meteohub,2013-06-27 20:42:00,
2013-06-27 15:47:00,84.2,69.3,29.68,SW,226,10.0,12.0,61,0.00,,,0.01,meteohub,2013-06-27 20:47:00,
2013-06-27 15:52:00,83.7,69.3,29.68,SSW,213,11.0,14.0,62,0.00,,,0.01,meteohub,2013-06-27 20:52:00,
2013-06-27 15:57:00,83.8,70.9,29.68,SW,223,15.0,15.0,65,0.00,,,0.01,meteohub,2013-06-27 20:57:00,
2013-06-27 16:02:00,79.2,68.9,29.68,SW,215,12.0,22.0,71,0.00,,,0.01,meteohub,2013-06-27 21:02:00,
2013-06-27 16:08:00,78.3,69.3,29.68,SW,221,13.0,22.0,74,0.00,,,0.01,meteohub,2013-06-27 21:08:00,
2013-06-27 16:13:00,77.5,69.4,29.67,SSW,200,12.0,22.0,76,0.00,,,0.01,meteohub,2013-06-27 21:13:00,
2013-06-27 16:18:00,78.1,69.4,29.67,SSW,202,8.0,20.0,75,0.00,,,0.01,meteohub,2013-06-27 21:18:00,
2013-06-27 16:23:00,78.3,70.5,29.67,SW,215,12.0,18.0,77,0.00,,,0.01,meteohub,2013-06-27 21:23:00,
2013-06-27 16:28:00,78.3,69.6,29.66,SSW,202,8.0,18.0,75,0.00,,,0.01,meteohub,2013-06-27 21:28:00,
2013-06-27 16:33:00,78.4,70.2,29.65,SSW,204,12.0,16.0,76,0.00,,,0.01,meteohub,2013-06-27 21:33:00,
2013-06-27 16:38:00,78.8,69.8,29.65,SSW,213,9.0,16.0,74,0.00,,,0.01,meteohub,2013-06-27 21:38:00,
2013-06-27 16:43:00,79.5,70.2,29.65,SSW,210,7.0,16.0,73,0.00,,,0.01,meteohub,2013-06-27 21:43:00,
2013-06-27 16:49:00,80.1,69.8,29.64,SW,224,6.0,15.0,71,0.00,,,0.01,meteohub,2013-06-27 21:49:00,
2013-06-27 16:54:00,80.6,70.3,29.64,SW,222,7.0,13.0,71,0.00,,,0.01,meteohub,2013-06-27 21:54:00,
2013-06-27 16:59:00,80.2,70.0,29.64,SSW,205,7.0,12.0,71,0.00,,,0.01,meteohub,2013-06-27 21:59:00,
2013-06-27 17:05:00,80.1,70.2,29.64,SW,224,7.0,12.0,72,0.00,,,0.01,meteohub,2013-06-27 22:05:00,
2013-06-27 17:10:00,80.8,70.5,29.64,SW,219,8.0,10.0,71,0.00,,,0.01,meteohub,2013-06-27 22:10:00,
2013-06-27 17:15:00,81.1,70.9,29.64,SW,219,5.0,10.0,71,0.00,,,0.01,meteohub,2013-06-27 22:15:00,
2013-06-27 17:21:00,82.0,71.2,29.64,SW,224,5.0,11.0,70,0.00,,,0.01,meteohub,2013-06-27 22:21:00,
2013-06-27 17:26:00,82.6,70.5,29.64,WSW,245,1.0,9.0,67,0.00,,,0.01,meteohub,2013-06-27 22:26:00,
2013-06-27 17:31:00,80.8,69.6,29.65,NE,38,8.0,9.0,69,0.00,,,0.01,meteohub,2013-06-27 22:31:00,
2013-06-27 17:36:00,77.9,69.3,29.65,NE,38,5.0,9.0,75,0.00,,,0.01,meteohub,2013-06-27 22:36:00,
2013-06-27 17:41:00,78.1,70.0,29.65,NNE,19,0.0,9.0,76,0.00,,,0.01,meteohub,2013-06-27 22:41:00,
2013-06-27 17:46:00,79.0,70.3,29.64,NNE,19,0.0,9.0,75,0.00,,,0.01,meteohub,2013-06-27 22:46:00,
2013-06-27 17:51:00,80.1,70.2,29.64,NNE,19,1.0,7.0,72,0.00,,,0.01,meteohub,2013-06-27 22:51:00,
2013-06-27 17:57:00,81.1,71.2,29.64,NNE,19,0.0,3.0,72,0.00,,,0.01,meteohub,2013-06-27 22:57:00,
2013-06-27 18:02:00,81.9,71.1,29.64,NNE,19,3.0,3.0,70,0.00,,,0.01,meteohub,2013-06-27 23:02:00,
2013-06-27 18:07:00,81.7,70.9,29.64,NNE,19,0.0,4.0,70,0.00,,,0.01,meteohub,2013-06-27 23:07:00,
2013-06-27 18:12:00,81.7,71.4,29.64,NNE,19,1.0,5.0,71,0.00,,,0.01,meteohub,2013-06-27 23:12:00,
2013-06-27 18:17:00,81.9,71.1,29.65,NNE,19,2.0,5.0,70,0.00,,,0.01,meteohub,2013-06-27 23:17:00,
2013-06-27 18:22:00,81.9,71.1,29.65,NW,309,4.0,5.0,70,0.00,,,0.01,meteohub,2013-06-27 23:22:00,
2013-06-27 18:27:00,81.7,72.1,29.65,WNW,285,3.0,6.0,73,0.00,,,0.01,meteohub,2013-06-27 23:27:00,
2013-06-27 18:33:00,81.1,71.6,29.64,WSW,252,4.0,6.0,73,0.00,,,0.01,meteohub,2013-06-27 23:33:00,
2013-06-27 18:38:00,80.6,71.6,29.65,WSW,241,3.0,9.0,74,0.00,,,0.01,meteohub,2013-06-27 23:38:00,
2013-06-27 18:43:00,80.4,71.4,29.65,WSW,242,3.0,9.0,74,0.00,,,0.01,meteohub,2013-06-27 23:43:00,
2013-06-27 18:49:00,80.8,71.2,29.65,WSW,246,4.0,10.0,73,0.00,,,0.01,meteohub,2013-06-27 23:49:00,
2013-06-27 18:54:00,81.1,71.2,29.65,WSW,251,0.0,10.0,72,0.00,,,0.01,meteohub,2013-06-27 23:54:00,
2013-06-27 19:00:00,81.1,71.2,29.65,WSW,251,0.0,9.0,72,0.00,,,0.01,meteohub,2013-06-28 00:00:00,
2013-06-27 19:05:00,81.3,71.4,29.65,WSW,251,0.0,9.0,72,0.00,,,0.01,meteohub,2013-06-28 00:05:00,
2013-06-27 19:11:00,81.7,70.5,29.65,West,269,0.0,4.0,69,0.00,,,0.01,meteohub,2013-06-28 00:11:00,
2013-06-27 19:16:00,81.9,68.9,29.65,West,277,1.0,8.0,65,0.00,,,0.01,meteohub,2013-06-28 00:16:00,
2013-06-27 19:21:00,82.0,68.7,29.65,West,277,2.0,8.0,64,0.00,,,0.01,meteohub,2013-06-28 00:21:00,
2013-06-27 19:26:00,81.9,68.0,29.65,West,277,1.0,7.0,63,0.00,,,0.01,meteohub,2013-06-28 00:26:00,
2013-06-27 19:31:00,81.7,67.8,29.65,WNW,295,1.0,7.0,63,0.00,,,0.01,meteohub,2013-06-28 00:31:00,
2013-06-27 19:36:00,81.3,67.5,29.66,NNW,339,11.0,11.0,63,0.00,,,0.01,meteohub,2013-06-28 00:36:00,
2013-06-27 19:42:00,79.3,67.5,29.66,NNE,12,8.0,11.0,67,0.00,,,0.01,meteohub,2013-06-28 00:42:00,
2013-06-27 19:47:00,77.7,66.7,29.66,North,5,5.0,14.0,69,0.00,,,0.01,meteohub,2013-06-28 00:47:00,
2013-06-27 19:52:00,77.2,67.1,29.66,North,5,3.0,14.0,71,0.00,,,0.01,meteohub,2013-06-28 00:52:00,
2013-06-27 19:57:00,76.6,66.9,29.67,North,5,4.0,10.0,72,0.00,,,0.01,meteohub,2013-06-28 00:57:00,
2013-06-27 20:02:00,76.1,66.4,29.67,North,5,3.0,8.0,72,0.00,,,0.01,meteohub,2013-06-28 01:02:00,
2013-06-27 20:08:00,75.9,66.6,29.67,North,5,2.0,6.0,73,0.00,,,0.01,meteohub,2013-06-28 01:08:00,
2013-06-27 20:14:00,75.4,66.2,29.67,North,5,2.0,6.0,73,0.00,,,0.01,meteohub,2013-06-28 01:14:00,
2013-06-27 20:19:00,74.8,66.4,29.67,North,5,1.0,4.0,75,0.00,,,0.01,meteohub,2013-06-28 01:19:00,
2013-06-27 20:24:00,74.5,66.4,29.67,North,5,2.0,3.0,76,0.00,,,0.01,meteohub,2013-06-28 01:24:00,
2013-06-27 20:30:00,73.9,66.2,29.67,North,5,0.0,3.0,77,0.00,,,0.01,meteohub,2013-06-28 01:30:00,
2013-06-27 20:35:00,73.6,66.7,29.67,North,5,0.0,2.0,79,0.00,,,0.01,meteohub,2013-06-28 01:35:00,
2013-06-27 20:41:00,73.2,66.7,29.67,North,5,2.0,2.0,80,0.00,,,0.01,meteohub,2013-06-28 01:41:00,
2013-06-27 20:46:00,73.0,66.9,29.67,North,5,2.0,2.0,81,0.00,,,0.01,meteohub,2013-06-28 01:46:00,
2013-06-27 20:51:00,72.3,66.6,29.68,North,5,5.0,5.0,82,0.00,,,0.01,meteohub,2013-06-28 01:51:00,
2013-06-27 20:57:00,71.8,66.0,29.68,North,5,2.0,5.0,82,0.00,,,0.01,meteohub,2013-06-28 01:57:00,
2013-06-27 21:02:00,71.2,65.8,29.68,North,5,2.0,5.0,83,0.00,,,0.01,meteohub,2013-06-28 02:02:00,
2013-06-27 21:07:00,70.9,65.8,29.68,North,5,1.0,5.0,84,0.00,,,0.01,meteohub,2013-06-28 02:07:00,
2013-06-27 21:12:00,70.5,65.8,29.68,North,5,1.0,4.0,85,0.00,,,0.01,meteohub,2013-06-28 02:12:00,
2013-06-27 21:17:00,70.3,65.7,29.68,North,5,0.0,3.0,85,0.00,,,0.01,meteohub,2013-06-28 02:17:00,
2013-06-27 21:22:00,70.2,65.8,29.68,North,5,1.0,3.0,86,0.00,,,0.01,meteohub,2013-06-28 02:22:00,
2013-06-27 21:27:00,70.2,65.8,29.68,North,5,2.0,3.0,86,0.00,,,0.01,meteohub,2013-06-28 02:27:00,
2013-06-27 21:32:00,70.3,66.0,29.68,North,5,0.0,3.0,86,0.00,,,0.01,meteohub,2013-06-28 02:32:00,
2013-06-27 21:37:00,70.2,65.8,29.68,North,5,0.0,3.0,86,0.00,,,0.01,meteohub,2013-06-28 02:37:00,
2013-06-27 21:43:00,70.0,65.7,29.70,North,5,3.0,3.0,86,0.00,,,0.01,meteohub,2013-06-28 02:43:00,
2013-06-27 21:48:00,70.0,65.7,29.70,North,9,4.0,7.0,86,0.00,,,0.01,meteohub,2013-06-28 02:48:00,
2013-06-27 21:54:00,70.0,65.7,29.71,NNE,13,5.0,9.0,86,0.00,,,0.01,meteohub,2013-06-28 02:54:00,
2013-06-27 21:59:00,70.0,65.7,29.71,NNE,16,4.0,9.0,86,0.00,,,0.01,meteohub,2013-06-28 02:59:00,
2013-06-27 22:04:00,69.6,65.7,29.70,NNE,17,2.0,9.0,87,0.00,,,0.01,meteohub,2013-06-28 03:04:00,
2013-06-27 22:09:00,69.4,65.7,29.70,NNE,17,1.0,9.0,88,0.00,,,0.01,meteohub,2013-06-28 03:09:00,
2013-06-27 22:14:00,69.3,65.5,29.70,NNE,17,1.0,8.0,88,0.00,,,0.01,meteohub,2013-06-28 03:14:00,
2013-06-27 22:19:00,69.1,65.7,29.70,NNE,17,0.0,5.0,89,0.00,,,0.01,meteohub,2013-06-28 03:19:00,
2013-06-27 22:25:00,68.7,65.3,29.70,NNE,17,0.0,2.0,89,0.00,,,0.01,meteohub,2013-06-28 03:25:00,
2013-06-27 22:30:00,68.5,65.1,29.70,NNE,17,1.0,2.0,89,0.00,,,0.01,meteohub,2013-06-28 03:30:00,
2013-06-27 22:35:00,68.5,65.5,29.70,NNE,17,1.0,2.0,90,0.00,,,0.01,meteohub,2013-06-28 03:35:00,
2013-06-27 22:41:00,68.4,65.7,29.70,NNE,17,0.0,3.0,91,0.00,,,0.01,meteohub,2013-06-28 03:41:00,
2013-06-27 22:46:00,68.2,65.5,29.70,NNE,17,1.0,3.0,91,0.00,,,0.01,meteohub,2013-06-28 03:46:00,
2013-06-27 22:51:00,68.0,65.3,29.70,NNE,17,0.0,3.0,91,0.00,,,0.01,meteohub,2013-06-28 03:51:00,
2013-06-27 22:57:00,67.8,65.1,29.70,NNE,17,0.0,2.0,91,0.00,,,0.01,meteohub,2013-06-28 03:57:00,
2013-06-27 23:01:00,67.6,64.9,29.70,NNE,17,3.0,3.0,91,0.00,,,0.01,meteohub,2013-06-28 04:01:00,
2013-06-27 23:02:00,67.6,64.9,29.70,NNE,17,2.0,3.0,91,0.00,,,0.01,meteohub,2013-06-28 04:02:00,
2013-06-27 23:03:00,67.6,65.3,29.71,NNE,17,1.0,3.0,92,0.00,,,0.01,meteohub,2013-06-28 04:03:00,
2013-06-27 23:07:00,67.6,65.3,29.70,NNE,17,0.0,3.0,92,0.00,,,0.01,meteohub,2013-06-28 04:07:00,
2013-06-27 23:12:00,67.6,65.3,29.70,NNE,17,2.0,3.0,92,0.00,,,0.01,meteohub,2013-06-28 04:12:00,
2013-06-27 23:17:00,67.6,65.3,29.70,NNE,17,0.0,3.0,92,0.00,,,0.01,meteohub,2013-06-28 04:17:00,
2013-06-27 23:22:00,67.6,65.3,29.70,NNE,17,0.0,2.0,92,0.00,,,0.01,meteohub,2013-06-28 04:22:00,
2013-06-27 23:27:00,67.6,65.3,29.70,NNE,17,0.0,2.0,92,0.00,,,0.01,meteohub,2013-06-28 04:27:00,
2013-06-27 23:32:00,67.6,65.3,29.69,NNE,17,0.0,1.0,92,0.00,,,0.01,meteohub,2013-06-28 04:32:00,
2013-06-27 23:37:00,67.6,65.3,29.70,NNE,17,0.0,0.0,92,0.00,,,0.01,meteohub,2013-06-28 04:37:00,
2013-06-27 23:42:00,67.5,65.1,29.69,NNE,17,0.0,1.0,92,0.00,,,0.01,meteohub,2013-06-28 04:42:00,
2013-06-27 23:47:00,66.9,64.6,29.69,NNE,17,0.0,1.0,92,0.00,,,0.01,meteohub,2013-06-28 04:47:00,
2013-06-27 23:52:00,66.7,64.6,29.68,NNE,17,3.0,3.0,93,0.00,,,0.01,meteohub,2013-06-28 04:52:00,
2013-06-27 23:57:00,66.6,64.4,29.69,NNE,17,2.0,3.0,93,0.00,,,0.01,meteohub,2013-06-28 04:57:00,